Year,Month,Day,Hour,Minute,Value (Times are PST for insolation in W/m^2)
2011,06,18,00,00,0.00
2011,06,18,00,01,0.00
2011,06,18,00,02,0.00
2011,06,18,00,03,0.00
2011,06,18,00,04,0.00
2011,06,18,00,05,0.00
2011,06,18,00,06,0.00
2011,06,18,00,07,0.00
2011,06,18,00,08,0.00
2011,06,18,00,09,0.00
2011,06,18,00,10,0.00
2011,06,18,00,11,0.00
2011,06,18,00,12,0.00
2011,06,18,00,13,0.00
2011,06,18,00,14,0.00
2011,06,18,00,15,0.00
2011,06,18,00,16,0.00
2011,06,18,00,17,0.00
2011,06,18,00,18,0.00
2011,06,18,00,19,0.00
2011,06,18,00,20,0.00
2011,06,18,00,21,0.00
2011,06,18,00,22,0.00
2011,06,18,00,23,0.00
2011,06,18,00,24,0.00
2011,06,18,00,25,0.00
2011,06,18,00,26,0.00
2011,06,18,00,27,0.00
2011,06,18,00,28,0.00
2011,06,18,00,29,0.00
2011,06,18,00,30,0.00
2011,06,18,00,31,0.00
2011,06,18,00,32,0.00
2011,06,18,00,33,0.00
2011,06,18,00,34,0.00
2011,06,18,00,35,0.00
2011,06,18,00,36,0.00
2011,06,18,00,37,0.00
2011,06,18,00,38,0.00
2011,06,18,00,39,0.00
2011,06,18,00,40,0.00
2011,06,18,00,41,0.00
2011,06,18,00,42,0.00
2011,06,18,00,43,0.00
2011,06,18,00,44,0.00
2011,06,18,00,45,0.00
2011,06,18,00,46,0.00
2011,06,18,00,47,0.00
2011,06,18,00,48,0.00
2011,06,18,00,49,0.00
2011,06,18,00,50,0.00
2011,06,18,00,51,0.00
2011,06,18,00,52,0.00
2011,06,18,00,53,0.00
2011,06,18,00,54,0.00
2011,06,18,00,55,0.00
2011,06,18,00,56,0.00
2011,06,18,00,57,0.00
2011,06,18,00,58,0.00
2011,06,18,00,59,0.00
2011,06,18,01,00,0.00
2011,06,18,01,01,0.00
2011,06,18,01,02,0.00
2011,06,18,01,03,0.00
2011,06,18,01,04,0.00
2011,06,18,01,05,0.00
2011,06,18,01,06,0.00
2011,06,18,01,07,0.00
2011,06,18,01,08,0.00
2011,06,18,01,09,0.00
2011,06,18,01,10,0.00
2011,06,18,01,11,0.00
2011,06,18,01,12,0.00
2011,06,18,01,13,0.00
2011,06,18,01,14,0.00
2011,06,18,01,15,0.00
2011,06,18,01,16,0.00
2011,06,18,01,17,0.00
2011,06,18,01,18,0.00
2011,06,18,01,19,0.00
2011,06,18,01,20,0.00
2011,06,18,01,21,0.00
2011,06,18,01,22,0.00
2011,06,18,01,23,0.00
2011,06,18,01,24,0.00
2011,06,18,01,25,0.00
2011,06,18,01,26,0.00
2011,06,18,01,27,0.00
2011,06,18,01,28,0.00
2011,06,18,01,29,0.00
2011,06,18,01,30,0.00
2011,06,18,01,31,0.00
2011,06,18,01,32,0.00
2011,06,18,01,33,0.00
2011,06,18,01,34,0.00
2011,06,18,01,35,0.00
2011,06,18,01,36,0.00
2011,06,18,01,37,0.00
2011,06,18,01,38,0.00
2011,06,18,01,39,0.00
2011,06,18,01,40,0.00
2011,06,18,01,41,0.00
2011,06,18,01,42,0.00
2011,06,18,01,43,0.00
2011,06,18,01,44,0.00
2011,06,18,01,45,0.00
2011,06,18,01,46,0.00
2011,06,18,01,47,0.00
2011,06,18,01,48,0.00
2011,06,18,01,49,0.00
2011,06,18,01,50,0.00
2011,06,18,01,51,0.00
2011,06,18,01,52,0.00
2011,06,18,01,53,0.00
2011,06,18,01,54,0.00
2011,06,18,01,55,0.00
2011,06,18,01,56,0.00
2011,06,18,01,57,0.00
2011,06,18,01,58,0.00
2011,06,18,01,59,0.00
2011,06,18,02,00,0.00
2011,06,18,02,01,0.00
2011,06,18,02,02,0.00
2011,06,18,02,03,0.00
2011,06,18,02,04,0.00
2011,06,18,02,05,0.00
2011,06,18,02,06,0.00
2011,06,18,02,07,0.00
2011,06,18,02,08,0.00
2011,06,18,02,09,0.00
2011,06,18,02,10,0.00
2011,06,18,02,11,0.00
2011,06,18,02,12,0.00
2011,06,18,02,13,0.00
2011,06,18,02,14,0.00
2011,06,18,02,15,0.00
2011,06,18,02,16,0.00
2011,06,18,02,17,0.00
2011,06,18,02,18,0.00
2011,06,18,02,19,0.00
2011,06,18,02,20,0.00
2011,06,18,02,21,0.00
2011,06,18,02,22,0.00
2011,06,18,02,23,0.00
2011,06,18,02,24,0.00
2011,06,18,02,25,0.00
2011,06,18,02,26,0.00
2011,06,18,02,27,0.00
2011,06,18,02,28,0.00
2011,06,18,02,29,0.00
2011,06,18,02,30,0.00
2011,06,18,02,31,0.00
2011,06,18,02,32,0.00
2011,06,18,02,33,0.00
2011,06,18,02,34,0.00
2011,06,18,02,35,0.00
2011,06,18,02,36,0.00
2011,06,18,02,37,0.00
2011,06,18,02,38,0.00
2011,06,18,02,39,0.00
2011,06,18,02,40,0.00
2011,06,18,02,41,0.00
2011,06,18,02,42,0.00
2011,06,18,02,43,0.00
2011,06,18,02,44,0.00
2011,06,18,02,45,0.00
2011,06,18,02,46,0.00
2011,06,18,02,47,0.00
2011,06,18,02,48,0.00
2011,06,18,02,49,0.00
2011,06,18,02,50,0.00
2011,06,18,02,51,0.00
2011,06,18,02,52,0.00
2011,06,18,02,53,0.00
2011,06,18,02,54,0.00
2011,06,18,02,55,0.00
2011,06,18,02,56,0.00
2011,06,18,02,57,0.00
2011,06,18,02,58,0.00
2011,06,18,02,59,0.00
2011,06,18,03,00,0.00
2011,06,18,03,01,0.00
2011,06,18,03,02,0.00
2011,06,18,03,03,0.00
2011,06,18,03,04,0.00
2011,06,18,03,05,0.00
2011,06,18,03,06,0.00
2011,06,18,03,07,0.00
2011,06,18,03,08,0.00
2011,06,18,03,09,0.00
2011,06,18,03,10,0.00
2011,06,18,03,11,0.00
2011,06,18,03,12,0.00
2011,06,18,03,13,0.00
2011,06,18,03,14,0.00
2011,06,18,03,15,0.00
2011,06,18,03,16,0.00
2011,06,18,03,17,0.00
2011,06,18,03,18,0.00
2011,06,18,03,19,0.00
2011,06,18,03,20,0.00
2011,06,18,03,21,0.00
2011,06,18,03,22,0.00
2011,06,18,03,23,0.00
2011,06,18,03,24,0.00
2011,06,18,03,25,0.00
2011,06,18,03,26,0.00
2011,06,18,03,27,0.00
2011,06,18,03,28,0.00
2011,06,18,03,29,0.00
2011,06,18,03,30,0.00
2011,06,18,03,31,0.00
2011,06,18,03,32,0.00
2011,06,18,03,33,0.00
2011,06,18,03,34,0.00
2011,06,18,03,35,0.00
2011,06,18,03,36,0.00
2011,06,18,03,37,0.00
2011,06,18,03,38,0.00
2011,06,18,03,39,0.00
2011,06,18,03,40,0.00
2011,06,18,03,41,0.00
2011,06,18,03,42,0.00
2011,06,18,03,43,0.00
2011,06,18,03,44,0.00
2011,06,18,03,45,0.00
2011,06,18,03,46,0.00
2011,06,18,03,47,0.00
2011,06,18,03,48,0.00
2011,06,18,03,49,0.00
2011,06,18,03,50,0.00
2011,06,18,03,51,0.00
2011,06,18,03,52,0.00
2011,06,18,03,53,0.00
2011,06,18,03,54,0.00
2011,06,18,03,55,0.00
2011,06,18,03,56,0.00
2011,06,18,03,57,0.00
2011,06,18,03,58,0.00
2011,06,18,03,59,0.00
2011,06,18,04,00,0.00
2011,06,18,04,01,0.00
2011,06,18,04,02,0.00
2011,06,18,04,03,0.00
2011,06,18,04,04,0.00
2011,06,18,04,05,0.00
2011,06,18,04,06,0.00
2011,06,18,04,07,0.00
2011,06,18,04,08,0.00
2011,06,18,04,09,0.00
2011,06,18,04,10,0.00
2011,06,18,04,11,0.00
2011,06,18,04,12,0.00
2011,06,18,04,13,0.00
2011,06,18,04,14,0.00
2011,06,18,04,15,0.00
2011,06,18,04,16,0.00
2011,06,18,04,17,0.00
2011,06,18,04,18,0.00
2011,06,18,04,19,0.00
2011,06,18,04,20,0.00
2011,06,18,04,21,0.00
2011,06,18,04,22,0.00
2011,06,18,04,23,0.00
2011,06,18,04,24,0.00
2011,06,18,04,25,0.00
2011,06,18,04,26,0.00
2011,06,18,04,27,0.00
2011,06,18,04,28,0.00
2011,06,18,04,29,0.00
2011,06,18,04,30,0.00
2011,06,18,04,31,0.00
2011,06,18,04,32,0.00
2011,06,18,04,33,0.00
2011,06,18,04,34,0.00
2011,06,18,04,35,0.00
2011,06,18,04,36,0.00
2011,06,18,04,37,0.00
2011,06,18,04,38,0.00
2011,06,18,04,39,0.00
2011,06,18,04,40,0.00
2011,06,18,04,41,0.00
2011,06,18,04,42,0.00
2011,06,18,04,43,0.00
2011,06,18,04,44,0.00
2011,06,18,04,45,0.00
2011,06,18,04,46,0.00
2011,06,18,04,47,0.00
2011,06,18,04,48,0.00
2011,06,18,04,49,0.00
2011,06,18,04,50,0.00
2011,06,18,04,51,0.00
2011,06,18,04,52,0.00
2011,06,18,04,53,0.00
2011,06,18,04,54,0.00
2011,06,18,04,55,0.00
2011,06,18,04,56,0.00
2011,06,18,04,57,0.00
2011,06,18,04,58,0.00
2011,06,18,04,59,0.00
2011,06,18,05,00,0.00
2011,06,18,05,01,0.00
2011,06,18,05,02,0.00
2011,06,18,05,03,0.00
2011,06,18,05,04,0.00
2011,06,18,05,05,0.00
2011,06,18,05,06,0.00
2011,06,18,05,07,0.00
2011,06,18,05,08,0.00
2011,06,18,05,09,0.00
2011,06,18,05,10,0.00
2011,06,18,05,11,0.00
2011,06,18,05,12,0.00
2011,06,18,05,13,0.00
2011,06,18,05,14,0.00
2011,06,18,05,15,0.00
2011,06,18,05,16,0.00
2011,06,18,05,17,0.00
2011,06,18,05,18,0.00
2011,06,18,05,19,0.00
2011,06,18,05,20,0.00
2011,06,18,05,21,0.00
2011,06,18,05,22,0.00
2011,06,18,05,23,0.00
2011,06,18,05,24,0.00
2011,06,18,05,25,0.00
2011,06,18,05,26,0.00
2011,06,18,05,27,0.00
2011,06,18,05,28,0.00
2011,06,18,05,29,0.00
2011,06,18,05,30,0.00
2011,06,18,05,31,0.00
2011,06,18,05,32,0.00
2011,06,18,05,33,0.00
2011,06,18,05,34,0.00
2011,06,18,05,35,0.00
2011,06,18,05,36,0.00
2011,06,18,05,37,2.40
2011,06,18,05,38,5.00
2011,06,18,05,39,5.00
2011,06,18,05,40,5.00
2011,06,18,05,41,5.00
2011,06,18,05,42,5.00
2011,06,18,05,43,5.00
2011,06,18,05,44,5.30
2011,06,18,05,45,7.00
2011,06,18,05,46,7.00
2011,06,18,05,47,7.00
2011,06,18,05,48,7.90
2011,06,18,05,49,9.00
2011,06,18,05,50,9.00
2011,06,18,05,51,9.00
2011,06,18,05,52,10.70
2011,06,18,05,53,11.00
2011,06,18,05,54,11.00
2011,06,18,05,55,11.00
2011,06,18,05,56,11.00
2011,06,18,05,57,11.30
2011,06,18,05,58,12.00
2011,06,18,05,59,12.00
2011,06,18,06,00,12.00
2011,06,18,06,01,12.00
2011,06,18,06,02,13.40
2011,06,18,06,03,14.00
2011,06,18,06,04,14.00
2011,06,18,06,05,14.00
2011,06,18,06,06,14.00
2011,06,18,06,07,14.40
2011,06,18,06,08,16.00
2011,06,18,06,09,16.00
2011,06,18,06,10,16.00
2011,06,18,06,11,16.00
2011,06,18,06,12,16.00
2011,06,18,06,13,17.50
2011,06,18,06,14,18.00
2011,06,18,06,15,18.00
2011,06,18,06,16,18.00
2011,06,18,06,17,18.00
2011,06,18,06,18,18.00
2011,06,18,06,19,18.00
2011,06,18,06,20,18.40
2011,06,18,06,21,19.00
2011,06,18,06,22,20.10
2011,06,18,06,23,22.20
2011,06,18,06,24,23.00
2011,06,18,06,25,24.50
2011,06,18,06,26,25.90
2011,06,18,06,27,26.10
2011,06,18,06,28,28.00
2011,06,18,06,29,28.00
2011,06,18,06,30,28.00
2011,06,18,06,31,28.00
2011,06,18,06,32,28.90
2011,06,18,06,33,30.00
2011,06,18,06,34,30.00
2011,06,18,06,35,28.50
2011,06,18,06,36,29.50
2011,06,18,06,37,28.30
2011,06,18,06,38,26.00
2011,06,18,06,39,24.70
2011,06,18,06,40,23.00
2011,06,18,06,41,23.00
2011,06,18,06,42,23.00
2011,06,18,06,43,22.10
2011,06,18,06,44,21.00
2011,06,18,06,45,21.00
2011,06,18,06,46,21.00
2011,06,18,06,47,22.50
2011,06,18,06,48,23.00
2011,06,18,06,49,23.00
2011,06,18,06,50,23.00
2011,06,18,06,51,23.00
2011,06,18,06,52,23.00
2011,06,18,06,53,23.00
2011,06,18,06,54,23.00
2011,06,18,06,55,23.00
2011,06,18,06,56,21.70
2011,06,18,06,57,21.00
2011,06,18,06,58,21.00
2011,06,18,06,59,19.20
2011,06,18,07,00,19.00
2011,06,18,07,01,18.00
2011,06,18,07,02,18.00
2011,06,18,07,03,18.00
2011,06,18,07,04,18.00
2011,06,18,07,05,18.00
2011,06,18,07,06,18.00
2011,06,18,07,07,18.00
2011,06,18,07,08,18.00
2011,06,18,07,09,18.00
2011,06,18,07,10,18.90
2011,06,18,07,11,19.00
2011,06,18,07,12,19.30
2011,06,18,07,13,21.40
2011,06,18,07,14,23.00
2011,06,18,07,15,23.70
2011,06,18,07,16,25.00
2011,06,18,07,17,25.60
2011,06,18,07,18,27.30
2011,06,18,07,19,29.50
2011,06,18,07,20,31.70
2011,06,18,07,21,32.00
2011,06,18,07,22,33.00
2011,06,18,07,23,35.00
2011,06,18,07,24,35.40
2011,06,18,07,25,37.90
2011,06,18,07,26,40.00
2011,06,18,07,27,40.00
2011,06,18,07,28,40.00
2011,06,18,07,29,40.00
2011,06,18,07,30,40.00
2011,06,18,07,31,40.00
2011,06,18,07,32,40.00
2011,06,18,07,33,40.00
2011,06,18,07,34,40.00
2011,06,18,07,35,39.80
2011,06,18,07,36,39.00
2011,06,18,07,37,38.30
2011,06,18,07,38,37.00
2011,06,18,07,39,38.70
2011,06,18,07,40,41.30
2011,06,18,07,41,43.50
2011,06,18,07,42,42.30
2011,06,18,07,43,40.20
2011,06,18,07,44,39.00
2011,06,18,07,45,38.80
2011,06,18,07,46,37.00
2011,06,18,07,47,37.00
2011,06,18,07,48,37.00
2011,06,18,07,49,37.00
2011,06,18,07,50,35.80
2011,06,18,07,51,35.00
2011,06,18,07,52,35.00
2011,06,18,07,53,36.70
2011,06,18,07,54,37.00
2011,06,18,07,55,37.00
2011,06,18,07,56,37.00
2011,06,18,07,57,37.40
2011,06,18,07,58,39.00
2011,06,18,07,59,38.30
2011,06,18,08,00,37.00
2011,06,18,08,01,35.90
2011,06,18,08,02,35.00
2011,06,18,08,03,35.00
2011,06,18,08,04,35.00
2011,06,18,08,05,35.00
2011,06,18,08,06,37.10
2011,06,18,08,07,39.10
2011,06,18,08,08,40.80
2011,06,18,08,09,44.00
2011,06,18,08,10,44.00
2011,06,18,08,11,44.00
2011,06,18,08,12,44.00
2011,06,18,08,13,42.70
2011,06,18,08,14,42.00
2011,06,18,08,15,40.30
2011,06,18,08,16,40.00
2011,06,18,08,17,40.00
2011,06,18,08,18,40.00
2011,06,18,08,19,40.00
2011,06,18,08,20,39.70
2011,06,18,08,21,39.00
2011,06,18,08,22,38.10
2011,06,18,08,23,35.90
2011,06,18,08,24,35.00
2011,06,18,08,25,35.00
2011,06,18,08,26,36.60
2011,06,18,08,27,39.70
2011,06,18,08,28,42.10
2011,06,18,08,29,44.30
2011,06,18,08,30,46.00
2011,06,18,08,31,46.00
2011,06,18,08,32,45.30
2011,06,18,08,33,44.00
2011,06,18,08,34,44.00
2011,06,18,08,35,44.00
2011,06,18,08,36,45.50
2011,06,18,08,37,46.00
2011,06,18,08,38,46.00
2011,06,18,08,39,47.10
2011,06,18,08,40,49.30
2011,06,18,08,41,51.50
2011,06,18,08,42,53.30
2011,06,18,08,43,54.00
2011,06,18,08,44,55.90
2011,06,18,08,45,59.10
2011,06,18,08,46,62.00
2011,06,18,08,47,64.50
2011,06,18,08,48,68.20
2011,06,18,08,49,71.70
2011,06,18,08,50,76.10
2011,06,18,08,51,77.20
2011,06,18,08,52,79.00
2011,06,18,08,53,79.60
2011,06,18,08,54,81.80
2011,06,18,08,55,85.20
2011,06,18,08,56,91.70
2011,06,18,08,57,96.90
2011,06,18,08,58,97.30
2011,06,18,08,59,95.50
2011,06,18,09,00,95.00
2011,06,18,09,01,95.00
2011,06,18,09,02,92.70
2011,06,18,09,03,91.00
2011,06,18,09,04,91.00
2011,06,18,09,05,92.50
2011,06,18,09,06,98.30
2011,06,18,09,07,107.20
2011,06,18,09,08,117.20
2011,06,18,09,09,125.40
2011,06,18,09,10,125.50
2011,06,18,09,11,120.50
2011,06,18,09,12,114.00
2011,06,18,09,13,111.20
2011,06,18,09,14,113.60
2011,06,18,09,15,117.60
2011,06,18,09,16,123.90
2011,06,18,09,17,131.30
2011,06,18,09,18,138.50
2011,06,18,09,19,141.60
2011,06,18,09,20,139.80
2011,06,18,09,21,135.00
2011,06,18,09,22,132.20
2011,06,18,09,23,135.50
2011,06,18,09,24,144.70
2011,06,18,09,25,152.10
2011,06,18,09,26,157.20
2011,06,18,09,27,160.70
2011,06,18,09,28,162.00
2011,06,18,09,29,159.90
2011,06,18,09,30,156.70
2011,06,18,09,31,156.00
2011,06,18,09,32,153.60
2011,06,18,09,33,153.00
2011,06,18,09,34,155.00
2011,06,18,09,35,154.80
2011,06,18,09,36,153.00
2011,06,18,09,37,153.90
2011,06,18,09,38,157.70
2011,06,18,09,39,163.30
2011,06,18,09,40,171.10
2011,06,18,09,41,179.60
2011,06,18,09,42,191.80
2011,06,18,09,43,205.10
2011,06,18,09,44,218.60
2011,06,18,09,45,232.70
2011,06,18,09,46,247.90
2011,06,18,09,47,259.00
2011,06,18,09,48,259.80
2011,06,18,09,49,244.10
2011,06,18,09,50,214.70
2011,06,18,09,51,192.60
2011,06,18,09,52,189.20
2011,06,18,09,53,193.50
2011,06,18,09,54,192.80
2011,06,18,09,55,186.10
2011,06,18,09,56,180.90
2011,06,18,09,57,178.90
2011,06,18,09,58,178.20
2011,06,18,09,59,180.30
2011,06,18,10,00,184.20
2011,06,18,10,01,185.60
2011,06,18,10,02,185.00
2011,06,18,10,03,190.10
2011,06,18,10,04,202.60
2011,06,18,10,05,216.10
2011,06,18,10,06,228.70
2011,06,18,10,07,239.30
2011,06,18,10,08,244.60
2011,06,18,10,09,249.60
2011,06,18,10,10,248.00
2011,06,18,10,11,245.30
2011,06,18,10,12,237.70
2011,06,18,10,13,232.80
2011,06,18,10,14,233.30
2011,06,18,10,15,239.20
2011,06,18,10,16,249.40
2011,06,18,10,17,260.80
2011,06,18,10,18,267.60
2011,06,18,10,19,279.90
2011,06,18,10,20,289.70
2011,06,18,10,21,295.00
2011,06,18,10,22,295.00
2011,06,18,10,23,295.00
2011,06,18,10,24,288.40
2011,06,18,10,25,272.90
2011,06,18,10,26,259.50
2011,06,18,10,27,257.00
2011,06,18,10,28,264.20
2011,06,18,10,29,282.20
2011,06,18,10,30,306.60
2011,06,18,10,31,322.60
2011,06,18,10,32,322.20
2011,06,18,10,33,310.80
2011,06,18,10,34,296.30
2011,06,18,10,35,281.90
2011,06,18,10,36,265.90
2011,06,18,10,37,251.20
2011,06,18,10,38,240.40
2011,06,18,10,39,230.50
2011,06,18,10,40,224.60
2011,06,18,10,41,217.40
2011,06,18,10,42,213.80
2011,06,18,10,43,212.40
2011,06,18,10,44,211.00
2011,06,18,10,45,211.90
2011,06,18,10,46,213.60
2011,06,18,10,47,213.40
2011,06,18,10,48,211.50
2011,06,18,10,49,209.40
2011,06,18,10,50,207.20
2011,06,18,10,51,207.20
2011,06,18,10,52,211.20
2011,06,18,10,53,213.60
2011,06,18,10,54,217.30
2011,06,18,10,55,220.40
2011,06,18,10,56,221.00
2011,06,18,10,57,221.00
2011,06,18,10,58,222.40
2011,06,18,10,59,225.90
2011,06,18,11,00,229.50
2011,06,18,11,01,236.30
2011,06,18,11,02,243.30
2011,06,18,11,03,248.80
2011,06,18,11,04,254.90
2011,06,18,11,05,265.20
2011,06,18,11,06,275.90
2011,06,18,11,07,287.00
2011,06,18,11,08,296.10
2011,06,18,11,09,303.20
2011,06,18,11,10,312.60
2011,06,18,11,11,321.00
2011,06,18,11,12,330.50
2011,06,18,11,13,343.00
2011,06,18,11,14,355.70
2011,06,18,11,15,363.50
2011,06,18,11,16,370.30
2011,06,18,11,17,373.00
2011,06,18,11,18,372.10
2011,06,18,11,19,368.70
2011,06,18,11,20,363.80
2011,06,18,11,21,358.30
2011,06,18,11,22,351.10
2011,06,18,11,23,346.40
2011,06,18,11,24,342.90
2011,06,18,11,25,340.70
2011,06,18,11,26,339.40
2011,06,18,11,27,341.60
2011,06,18,11,28,343.70
2011,06,18,11,29,346.40
2011,06,18,11,30,353.20
2011,06,18,11,31,363.00
2011,06,18,11,32,375.10
2011,06,18,11,33,386.40
2011,06,18,11,34,393.40
2011,06,18,11,35,404.50
2011,06,18,11,36,414.00
2011,06,18,11,37,421.10
2011,06,18,11,38,426.80
2011,06,18,11,39,434.20
2011,06,18,11,40,437.10
2011,06,18,11,41,433.70
2011,06,18,11,42,428.60
2011,06,18,11,43,427.00
2011,06,18,11,44,430.20
2011,06,18,11,45,437.00
2011,06,18,11,46,450.70
2011,06,18,11,47,464.00
2011,06,18,11,48,464.40
2011,06,18,11,49,465.40
2011,06,18,11,50,464.70
2011,06,18,11,51,469.30
2011,06,18,11,52,478.80
2011,06,18,11,53,489.90
2011,06,18,11,54,494.00
2011,06,18,11,55,494.00
2011,06,18,11,56,489.50
2011,06,18,11,57,492.20
2011,06,18,11,58,497.40
2011,06,18,11,59,485.40
2011,06,18,12,00,468.50
2011,06,18,12,01,459.50
2011,06,18,12,02,453.60
2011,06,18,12,03,448.30
2011,06,18,12,04,439.10
2011,06,18,12,05,425.50
2011,06,18,12,06,406.80
2011,06,18,12,07,391.40
2011,06,18,12,08,375.50
2011,06,18,12,09,365.00
2011,06,18,12,10,356.40
2011,06,18,12,11,341.10
2011,06,18,12,12,315.50
2011,06,18,12,13,287.80
2011,06,18,12,14,263.80
2011,06,18,12,15,246.30
2011,06,18,12,16,232.00
2011,06,18,12,17,221.40
2011,06,18,12,18,214.60
2011,06,18,12,19,214.00
2011,06,18,12,20,213.90
2011,06,18,12,21,213.00
2011,06,18,12,22,216.20
2011,06,18,12,23,228.80
2011,06,18,12,24,246.60
2011,06,18,12,25,260.20
2011,06,18,12,26,260.20
2011,06,18,12,27,248.00
2011,06,18,12,28,225.20
2011,06,18,12,29,199.40
2011,06,18,12,30,170.90
2011,06,18,12,31,148.10
2011,06,18,12,32,128.80
2011,06,18,12,33,112.70
2011,06,18,12,34,102.00
2011,06,18,12,35,95.10
2011,06,18,12,36,91.30
2011,06,18,12,37,88.70
2011,06,18,12,38,86.50
2011,06,18,12,39,87.50
2011,06,18,12,40,89.80
2011,06,18,12,41,91.20
2011,06,18,12,42,95.50
2011,06,18,12,43,99.00
2011,06,18,12,44,102.50
2011,06,18,12,45,104.40
2011,06,18,12,46,105.00
2011,06,18,12,47,105.00
2011,06,18,12,48,104.40
2011,06,18,12,49,101.10
2011,06,18,12,50,98.30
2011,06,18,12,51,97.10
2011,06,18,12,52,94.90
2011,06,18,12,53,92.70
2011,06,18,12,54,91.40
2011,06,18,12,55,94.20
2011,06,18,12,56,98.80
2011,06,18,12,57,107.50
2011,06,18,12,58,119.90
2011,06,18,12,59,135.10
2011,06,18,13,00,155.00
2011,06,18,13,01,175.30
2011,06,18,13,02,190.50
2011,06,18,13,03,200.40
2011,06,18,13,04,208.10
2011,06,18,13,05,215.20
2011,06,18,13,06,220.30
2011,06,18,13,07,220.60
2011,06,18,13,08,216.70
2011,06,18,13,09,208.90
2011,06,18,13,10,200.30
2011,06,18,13,11,194.10
2011,06,18,13,12,193.00
2011,06,18,13,13,193.00
2011,06,18,13,14,192.00
2011,06,18,13,15,192.30
2011,06,18,13,16,196.50
2011,06,18,13,17,202.60
2011,06,18,13,18,202.50
2011,06,18,13,19,198.60
2011,06,18,13,20,194.70
2011,06,18,13,21,190.90
2011,06,18,13,22,188.50
2011,06,18,13,23,185.50
2011,06,18,13,24,179.60
2011,06,18,13,25,173.90
2011,06,18,13,26,172.00
2011,06,18,13,27,172.80
2011,06,18,13,28,176.90
2011,06,18,13,29,181.60
2011,06,18,13,30,186.00
2011,06,18,13,31,192.10
2011,06,18,13,32,198.30
2011,06,18,13,33,199.00
2011,06,18,13,34,197.40
2011,06,18,13,35,192.50
2011,06,18,13,36,185.80
2011,06,18,13,37,181.00
2011,06,18,13,38,182.00
2011,06,18,13,39,186.60
2011,06,18,13,40,188.00
2011,06,18,13,41,186.60
2011,06,18,13,42,181.70
2011,06,18,13,43,177.10
2011,06,18,13,44,174.50
2011,06,18,13,45,174.00
2011,06,18,13,46,174.00
2011,06,18,13,47,170.40
2011,06,18,13,48,158.10
2011,06,18,13,49,145.70
2011,06,18,13,50,134.40
2011,06,18,13,51,126.20
2011,06,18,13,52,121.50
2011,06,18,13,53,120.50
2011,06,18,13,54,123.50
2011,06,18,13,55,128.50
2011,06,18,13,56,135.90
2011,06,18,13,57,143.30
2011,06,18,13,58,153.60
2011,06,18,13,59,166.50
2011,06,18,14,00,182.40
2011,06,18,14,01,200.40
2011,06,18,14,02,218.90
2011,06,18,14,03,231.70
2011,06,18,14,04,241.10
2011,06,18,14,05,246.40
2011,06,18,14,06,246.60
2011,06,18,14,07,243.60
2011,06,18,14,08,241.20
2011,06,18,14,09,244.40
2011,06,18,14,10,252.10
2011,06,18,14,11,264.80
2011,06,18,14,12,281.10
2011,06,18,14,13,298.00
2011,06,18,14,14,317.10
2011,06,18,14,15,332.00
2011,06,18,14,16,337.40
2011,06,18,14,17,333.60
2011,06,18,14,18,328.00
2011,06,18,14,19,322.50
2011,06,18,14,20,315.60
2011,06,18,14,21,308.20
2011,06,18,14,22,302.90
2011,06,18,14,23,297.70
2011,06,18,14,24,292.40
2011,06,18,14,25,287.60
2011,06,18,14,26,281.10
2011,06,18,14,27,272.30
2011,06,18,14,28,260.20
2011,06,18,14,29,246.70
2011,06,18,14,30,233.80
2011,06,18,14,31,220.50
2011,06,18,14,32,210.30
2011,06,18,14,33,202.50
2011,06,18,14,34,195.60
2011,06,18,14,35,189.30
2011,06,18,14,36,180.50
2011,06,18,14,37,170.80
2011,06,18,14,38,160.10
2011,06,18,14,39,150.40
2011,06,18,14,40,140.40
2011,06,18,14,41,139.00
2011,06,18,14,42,120.70
2011,06,18,14,43,113.50
2011,06,18,14,44,107.90
2011,06,18,14,45,103.40
2011,06,18,14,46,102.70
2011,06,18,14,47,104.50
2011,06,18,14,48,109.60
2011,06,18,14,49,120.60
2011,06,18,14,50,133.80
2011,06,18,14,51,148.80
2011,06,18,14,52,159.10
2011,06,18,14,53,162.80
2011,06,18,14,54,159.30
2011,06,18,14,55,151.50
2011,06,18,14,56,143.30
2011,06,18,14,57,134.40
2011,06,18,14,58,127.60
2011,06,18,14,59,122.10
2011,06,18,15,00,116.20
2011,06,18,15,01,110.30
2011,06,18,15,02,106.00
2011,06,18,15,03,104.10
2011,06,18,15,04,104.00
2011,06,18,15,05,104.00
2011,06,18,15,06,104.20
2011,06,18,15,07,105.50
2011,06,18,15,08,108.40
2011,06,18,15,09,113.20
2011,06,18,15,10,118.90
2011,06,18,15,11,125.80
2011,06,18,15,12,133.20
2011,06,18,15,13,140.90
2011,06,18,15,14,145.60
2011,06,18,15,15,148.00
2011,06,18,15,16,148.40
2011,06,18,15,17,152.50
2011,06,18,15,18,160.40
2011,06,18,15,19,170.10
2011,06,18,15,20,178.20
2011,06,18,15,21,182.20
2011,06,18,15,22,183.00
2011,06,18,15,23,181.50
2011,06,18,15,24,182.60
2011,06,18,15,25,187.50
2011,06,18,15,26,192.20
2011,06,18,15,27,195.30
2011,06,18,15,28,197.40
2011,06,18,15,29,199.30
2011,06,18,15,30,200.80
2011,06,18,15,31,201.10
2011,06,18,15,32,200.00
2011,06,18,15,33,201.30
2011,06,18,15,34,205.50
2011,06,18,15,35,214.60
2011,06,18,15,36,222.30
2011,06,18,15,37,224.80
2011,06,18,15,38,219.40
2011,06,18,15,39,208.70
2011,06,18,15,40,196.20
2011,06,18,15,41,183.60
2011,06,18,15,42,169.40
2011,06,18,15,43,156.80
2011,06,18,15,44,149.80
2011,06,18,15,45,143.60
2011,06,18,15,46,136.10
2011,06,18,15,47,130.50
2011,06,18,15,48,128.00
2011,06,18,15,49,128.00
2011,06,18,15,50,127.40
2011,06,18,15,51,124.40
2011,06,18,15,52,122.20
2011,06,18,15,53,120.50
2011,06,18,15,54,118.80
2011,06,18,15,55,119.90
2011,06,18,15,56,123.90
2011,06,18,15,57,126.70
2011,06,18,15,58,129.70
2011,06,18,15,59,134.10
2011,06,18,16,00,137.40
2011,06,18,16,01,142.10
2011,06,18,16,02,147.60
2011,06,18,16,03,153.60
2011,06,18,16,04,162.30
2011,06,18,16,05,175.10
2011,06,18,16,06,191.10
2011,06,18,16,07,211.00
2011,06,18,16,08,231.80
2011,06,18,16,09,244.60
2011,06,18,16,10,248.10
2011,06,18,16,11,249.80
2011,06,18,16,12,246.50
2011,06,18,16,13,234.70
2011,06,18,16,14,210.90
2011,06,18,16,15,184.70
2011,06,18,16,16,159.40
2011,06,18,16,17,140.20
2011,06,18,16,18,129.10
2011,06,18,16,19,121.90
2011,06,18,16,20,121.00
2011,06,18,16,21,123.10
2011,06,18,16,22,125.50
2011,06,18,16,23,130.80
2011,06,18,16,24,134.30
2011,06,18,16,25,134.60
2011,06,18,16,26,133.10
2011,06,18,16,27,130.90
2011,06,18,16,28,130.00
2011,06,18,16,29,130.00
2011,06,18,16,30,131.50
2011,06,18,16,31,132.00
2011,06,18,16,32,126.70
2011,06,18,16,33,120.30
2011,06,18,16,34,114.90
2011,06,18,16,35,109.70
2011,06,18,16,36,105.90
2011,06,18,16,37,104.00
2011,06,18,16,38,102.80
2011,06,18,16,39,103.30
2011,06,18,16,40,104.00
2011,06,18,16,41,104.00
2011,06,18,16,42,106.60
2011,06,18,16,43,113.30
2011,06,18,16,44,118.70
2011,06,18,16,45,124.50
2011,06,18,16,46,132.00
2011,06,18,16,47,139.60
2011,06,18,16,48,147.20
2011,06,18,16,49,153.90
2011,06,18,16,50,158.70
2011,06,18,16,51,161.50
2011,06,18,16,52,164.40
2011,06,18,16,53,168.60
2011,06,18,16,54,172.10
2011,06,18,16,55,174.20
2011,06,18,16,56,176.60
2011,06,18,16,57,183.00
2011,06,18,16,58,193.80
2011,06,18,16,59,198.10
2011,06,18,17,00,207.20
2011,06,18,17,01,214.20
2011,06,18,17,02,221.20
2011,06,18,17,03,228.70
2011,06,18,17,04,239.90
2011,06,18,17,05,251.70
2011,06,18,17,06,268.90
2011,06,18,17,07,294.80
2011,06,18,17,08,310.60
2011,06,18,17,09,303.20
2011,06,18,17,10,268.00
2011,06,18,17,11,240.40
2011,06,18,17,12,224.40
2011,06,18,17,13,213.70
2011,06,18,17,14,207.00